Wind_Speed
22 21 22 27 27 28 29 32 32 31 32 37 39 41 39 40 41 41 42 42 43 44 50 55 59 60 62 64 58 54 49 44 45 51 51 51 51 53 64 71 63 49 59 66
24 23 29 29 29 30 30 32 30 30 31 37 35 38 39 39 41 42 45 45 45 47 47 46 48 53 57 57 56 54 51 48 47 53 55 54 55 53 53 66 70 68 62 67
26 26 30 31 32 34 32 35 34 36 34 39 40 42 35 36 38 39 40 42 43 42 42 43 45 47 48 47 45 48 50 48 46 52 54 56 54 54 52 57 67 72 75 74
24 30 31 33 31 35 36 35 40 41 42 42 41 47 38 35 33 36 37 40 44 42 44 46 45 48 50 50 50 50 50 48 50 47 51 55 56 54 54 55 57 63 69 72
29 32 36 35 33 35 39 37 41 43 47 48 46 48 47 40 33 32 35 39 39 43 46 50 47 46 50 53 56 54 51 51 56 55 51 52 54 53 53 59 59 59 64 71
30 36 37 38 39 38 40 44 45 46 48 56 47 49 54 45 39 34 35 36 40 44 44 45 46 50 51 54 57 58 53 55 56 58 50 54 57 55 53 55 60 60 59 64
38 35 37 41 43 37 41 44 46 50 50 56 51 56 57 50 40 38 38 40 41 44 44 37 39 40 40 46 48 57 53 49 48 45 48 52 57 59 56 55 58 62 58 54
43 41 33 35 38 37 35 38 42 51 54 56 52 57 53 50 47 47 42 41 41 43 43 39 35 37 38 39 46 50 48 37 38 41 36 38 52 58 59 58 57 57 57 51
49 49 45 41 36 36 38 41 46 50 51 56 56 56 54 56 58 53 47 44 47 44 49 46 37 37 41 38 48 52 45 44 41 39 43 36 40 54 59 59 57 53 50 49
50 53 49 48 47 42 44 48 51 50 56 60 57 57 57 59 58 54 54 55 58 58 53 42 40 36 33 34 52 56 49 47 46 43 43 42 39 43 56 60 59 57 55 52
51 54 54 53 50 46 51 54 50 50 55 58 60 59 59 56 54 54 54 55 43 39 40 40 41 36 35 33 31 52 55 52 48 48 45 45 44 42 45 56 58 56 55 53
44 47 49 47 45 45 44 44 44 44 45 48 52 60 56 52 53 51 50 46 45 43 43 40 37 38 32 30 33 32 49 50 45 45 43 36 37 40 41 43 47 48 47 48
42 45 44 43 42 43 43 42 42 46 49 53 55 61 53 49 48 50 46 45 56 50 39 44 38 37 37 32 32 35 37 42 46 43 41 38 36 33 36 37 40 46 44 45
43 42 40 44 43 39 39 39 41 46 52 53 55 52 42 44 41 39 44 39 34 35 34 40 40 44 40 35 38 35 40 44 45 45 46 42 41 40 39 35 33 35 38 42
41 42 42 41 38 41 41 39 42 39 37 41 28 21 22 26 28 26 28 31 29 27 35 41 43 47 37 32 33 41 38 40 38 43 49 42 40 44 44 42 41 43 42 42
38 37 37 34 35 34 35 36 33 31 27 20 15 19 24 25 25 22 22 24 32 38 36 32 34 35 40 38 33 34 40 38 40 43 42 37 39 45 38 42 46 47 48 50
32 34 34 25 29 29 27 26 26 23 21 20 19 18 24 23 23 23 27 29 27 32 39 39 40 42 45 45 46 44 44 49 53 51 51 52 47 58 60 54 52 54 55 57
26 22 21 22 21 25 24 24 25 24 21 20 22 24 27 29 26 24 22 24 27 30 33 35 39 43 48 51 50 53 49 50 54 54 54 56 57 60 64 63 58 51 50 51
17 18 18 18 18 20 20 19 23 25 24 24 26 29 32 33 28 22 34 37 36 34 35 38 39 39 43 52 54 51 51 51 49 51 56 58 60 61 61 60 56 53 52 51
14 16 21 20 19 16 16 20 24 26 27 29 33 34 37 41 44 38 45 44 43 45 46 46 46 46 44 44 49 52 54 54 54 53 53 54 57 60 58 57 57 56 56 52
22 23 21 21 18 17 18 21 23 27 31 34 39 43 46 48 50 52 48 48 51 52 52 54 54 52 50 50 51 52 53 52 52 53 54 56 57 59 60 61 63 63 61 59
24 22 14 18 18 19 16 22 28 32 35 43 46 47 45 43 44 45 43 41 44 47 48 51 52 50 50 50 48 43 41 43 47 51 53 55 57 58 59 60 61 64 65 63
18 17 16 15 17 18 22 28 32 38 43 44 47 43 42 38 38 37 35 35 36 39 40 39 38 40 41 41 38 33 34 38 39 41 41 42 46 51 56 59 59 60 62 62
13 14 12 12 13 18 23 32 35 40 45 49 51 50 46 38 36 35 36 40 35 33 37 36 32 28 26 28 30 30 30 31 29 36 41 48 44 44 46 37 45 51 63 70
11 10 8 9 13 17 28 36 42 42 42 40 37 35 36 34 36 37 35 33 30 29 29 29 24 22 23 25 25 23 23 30 29 30 31 41 36 32 38 42 45 45 44 42
10 8 5 9 14 19 27 36 42 39 34 29 31 36 33 36 28 27 23 20 21 25 26 20 18 19 19 18 17 27 29 21 20 29 31 30 34 41 38 39 46 50 44 37
Wind_Direction
265 269 269 263 265 265 267 268 268 266 260 264 264 263 262 264 265 265 263 261 258 253 252 256 255 255 256 261 264 264 260 249 248 247 245 247 249 244 244 244 253 255 255 241
267 271 266 268 272 270 269 270 272 269 271 267 265 267 266 263 263 263 267 265 263 264 263 258 258 258 257 255 258 259 257 257 245 243 244 243 247 248 244 242 241 246 251 251
265 266 268 269 270 274 274 279 278 276 266 263 270 266 267 264 265 265 263 267 268 268 265 262 262 262 259 258 256 256 251 249 247 245 245 246 243 248 251 245 245 246 248 249
264 264 267 266 265 269 268 273 273 270 271 271 265 278 269 268 266 268 270 267 271 274 272 267 265 264 263 262 259 257 252 250 248 246 249 249 249 244 249 254 251 249 249 248
265 264 265 266 268 266 274 269 272 275 277 278 277 280 279 276 273 271 267 269 269 268 267 269 272 268 265 265 263 258 256 255 253 252 250 249 252 252 247 246 251 254 255 253
264 265 267 268 266 266 269 271 274 277 279 277 285 281 277 280 281 279 277 272 269 265 265 269 265 261 259 257 260 259 257 252 251 254 255 248 250 251 250 250 247 251 250 253
261 259 261 266 269 267 271 277 282 279 278 282 282 278 280 286 287 283 282 274 271 270 271 268 266 266 269 253 252 255 254 252 255 255 254 250 246 247 246 247 247 247 250 250
278 276 271 269 275 275 271 273 277 282 282 281 278 274 282 284 283 283 283 275 275 276 278 267 267 265 259 253 248 246 246 247 246 248 255 261 249 247 248 246 245 249 252 252
286 285 286 283 275 279 282 282 281 283 281 280 279 281 283 283 280 282 283 276 268 276 289 274 271 264 263 264 247 240 241 242 246 251 258 262 262 247 247 249 251 252 252 252
283 286 285 284 285 283 281 282 280 279 282 282 281 280 281 280 280 283 282 283 278 281 279 276 269 272 272 280 250 239 240 241 245 250 256 265 265 253 246 246 249 253 256 257
278 281 285 286 285 283 278 275 277 276 275 277 280 280 280 282 282 280 278 275 280 272 265 265 264 268 265 269 261 241 242 240 245 251 256 256 257 256 250 249 249 250 253 255
271 274 277 280 281 277 275 275 276 276 278 277 277 278 280 284 283 279 271 253 272 277 261 251 258 269 267 255 258 267 243 247 254 253 251 250 245 248 252 253 254 250 252 254
277 275 277 274 271 271 273 278 278 278 281 282 283 286 289 285 281 288 280 274 271 262 258 262 250 248 253 258 262 259 257 253 259 256 254 257 250 251 247 247 252 256 253 251
277 273 272 272 276 276 274 276 280 282 281 285 281 292 293 282 286 277 271 270 268 258 253 250 249 251 261 259 264 267 265 254 255 256 253 256 253 248 246 242 245 253 260 254
276 275 275 275 277 274 279 286 282 284 286 284 293 293 292 299 304 292 275 265 265 245 237 245 251 248 250 253 256 257 257 256 259 259 259 258 245 254 246 246 251 250 253 259
276 275 273 272 269 279 285 285 290 292 294 289 281 307 307 298 300 305 302 291 255 257 259 264 257 248 247 256 252 257 256 256 249 252 246 261 253 243 253 249 252 254 252 252
277 272 268 276 284 284 282 281 282 293 288 280 282 281 308 306 299 296 290 283 281 268 261 263 260 254 257 253 253 262 257 255 257 255 256 259 255 245 260 260 257 258 254 245
269 273 288 282 273 278 285 281 281 287 289 287 291 291 298 298 294 286 295 283 279 280 272 269 268 263 260 260 263 260 265 256 251 256 257 254 254 254 256 259 259 256 253 249
290 285 278 282 280 284 286 279 286 291 289 289 290 291 295 294 286 278 296 290 284 280 276 272 271 269 265 260 262 264 268 258 259 259 258 256 253 255 261 264 262 256 251 250
275 279 280 279 281 275 268 278 292 295 293 294 290 289 284 284 282 279 280 278 276 277 277 274 273 271 268 264 264 267 268 269 267 266 262 262 261 262 262 260 262 261 261 260
253 275 280 274 283 283 280 287 297 302 303 299 297 295 292 289 288 289 284 281 278 275 273 272 275 275 274 272 267 266 266 269 270 270 271 267 266 267 268 267 265 264 263 260
260 264 278 278 283 287 291 298 299 300 300 297 295 294 294 291 286 285 286 284 279 276 273 272 273 275 275 275 275 277 275 270 266 264 264 264 265 265 265 263 259 258 258 256
255 252 260 274 285 291 302 304 307 305 306 305 306 306 306 304 301 297 292 289 282 278 274 271 271 272 276 278 281 282 276 274 273 274 275 272 269 265 262 260 259 254 251 253
252 252 264 276 291 306 309 315 317 323 318 315 313 312 310 305 302 299 292 287 279 280 274 272 275 285 283 277 281 284 282 280 280 276 273 268 269 268 262 260 257 253 250 247
243 253 261 289 308 315 323 325 325 326 314 310 312 316 311 300 298 295 290 290 271 278 272 270 282 285 280 283 290 288 287 284 285 283 278 270 267 273 270 271 255 244 249 242
236 238 271 302 315 324 328 327 325 319 321 324 322 322 321 321 309 309 297 284 273 271 278 273 284 292 292 290 292 282 287 290 288 301 311 292 295 296 282 263 250 251 234 222
Height
5751 5752 5751 5749 5750 5749 5749 5747 5748 5749 5751 5747 5746 5745 5749 5748 5749 5751 5753 5754 5754 5755 5756 5755 5755 5757 5759 5758 5761 5763 5768 5774 5776 5775 5777 5780 5783 5786 5788 5788 5787 5793 5797 5801
5748 5748 5743 5742 5742 5742 5742 5740 5741 5741 5742 5737 5739 5736 5736 5739 5739 5741 5741 5741 5743 5744 5746 5748 5747 5748 5751 5751 5750 5752 5755 5757 5761 5763 5763 5765 5767 5771 5774 5775 5780 5783 5785 5789
5741 5742 5738 5737 5736 5735 5736 5734 5734 5731 5733 5728 5728 5724 5732 5732 5730 5730 5730 5729 5730 5731 5732 5734 5733 5734 5736 5739 5742 5743 5744 5745 5747 5748 5750 5753 5756 5759 5760 5763 5765 5770 5773 5777
5737 5731 5731 5729 5731 5727 5725 5726 5721 5720 5719 5719 5719 5710 5720 5722 5722 5719 5720 5719 5717 5718 5717 5718 5722 5722 5723 5726 5728 5730 5732 5734 5735 5736 5737 5739 5742 5748 5750 5750 5752 5756 5760 5764
5729 5727 5723 5724 5723 5720 5718 5718 5714 5711 5707 5705 5708 5706 5704 5710 5714 5714 5709 5707 5706 5705 5706 5705 5708 5710 5712 5713 5714 5716 5719 5721 5721 5722 5726 5729 5730 5732 5737 5740 5741 5743 5744 5749
5724 5716 5715 5714 5713 5713 5710 5706 5705 5703 5699 5691 5701 5697 5689 5697 5701 5701 5699 5698 5694 5693 5694 5694 5694 5694 5695 5698 5699 5702 5704 5706 5707 5710 5714 5716 5717 5719 5722 5725 5730 5732 5736 5736
5710 5711 5709 5705 5702 5705 5701 5698 5694 5690 5689 5683 5687 5680 5678 5683 5689 5687 5685 5684 5681 5680 5681 5681 5680 5680 5681 5680 5683 5687 5691 5692 5695 5698 5699 5701 5703 5706 5709 5711 5715 5719 5723 5727
5694 5695 5699 5699 5695 5694 5695 5693 5688 5677 5674 5671 5673 5666 5672 5672 5670 5669 5672 5671 5668 5665 5667 5668 5669 5668 5668 5669 5670 5676 5679 5680 5684 5687 5687 5685 5688 5692 5695 5699 5703 5706 5711 5715
5682 5680 5682 5684 5686 5686 5684 5680 5676 5670 5667 5659 5659 5659 5658 5657 5654 5656 5658 5656 5653 5651 5651 5656 5656 5654 5657 5657 5660 5662 5665 5667 5671 5675 5673 5676 5677 5679 5682 5685 5689 5692 5696 5701
5673 5667 5671 5672 5672 5674 5671 5668 5664 5663 5654 5647 5647 5646 5646 5644 5644 5646 5644 5641 5639 5640 5637 5643 5643 5643 5645 5645 5646 5649 5652 5655 5658 5660 5662 5663 5665 5667 5670 5673 5677 5680 5683 5687
5666 5661 5659 5657 5659 5662 5660 5655 5652 5650 5645 5637 5633 5633 5632 5633 5633 5631 5629 5627 5625 5626 5626 5629 5631 5632 5634 5635 5634 5639 5641 5643 5646 5650 5651 5653 5654 5656 5658 5660 5664 5668 5671 5675
5655 5651 5647 5649 5650 5647 5643 5642 5640 5636 5634 5628 5623 5620 5622 5621 5616 5614 5613 5613 5614 5613 5613 5614 5617 5618 5623 5626 5626 5626 5628 5632 5637 5640 5642 5644 5645 5646 5647 5649 5649 5653 5658 5661
5645 5639 5638 5638 5639 5636 5633 5631 5628 5624 5620 5615 5609 5606 5609 5606 5602 5601 5598 5598 5598 5602 5603 5604 5606 5609 5611 5612 5615 5618 5620 5623 5624 5626 5629 5633 5635 5637 5638 5639 5640 5641 5646 5649
5630 5629 5628 5625 5625 5625 5623 5620 5616 5612 5607 5605 5597 5596 5600 5595 5591 5589 5585 5585 5585 5587 5590 5593 5594 5599 5604 5604 5605 5605 5606 5608 5609 5612 5615 5620 5625 5626 5628 5629 5631 5633 5633 5637
5620 5618 5618 5616 5615 5611 5609 5609 5605 5602 5599 5591 5595 5589 5587 5585 5582 5577 5574 5576 5577 5577 5581 5582 5583 5588 5590 5592 5593 5593 5594 5595 5596 5600 5604 5608 5609 5614 5616 5619 5621 5623 5625 5625
5610 5609 5606 5608 5603 5602 5602 5597 5595 5591 5588 5586 5584 5584 5580 5579 5578 5574 5571 5570 5570 5571 5571 5573 5576 5578 5581 5582 5581 5582 5581 5582 5584 5586 5590 5592 5597 5602 5601 5605 5608 5609 5613 5615
5601 5599 5599 5599 5595 5594 5593 5591 5588 5585 5582 5580 5579 5579 5577 5574 5571 5568 5564 5562 5563 5563 5563 5563 5564 5565 5566 5567 5568 5570 5571 5570 5571 5573 5576 5579 5582 5584 5585 5587 5590 5593 5597 5600
5593 5592 5591 5592 5589 5588 5587 5584 5582 5580 5578 5576 5574 5573 5570 5567 5565 5561 5557 5556 5555 5553 5552 5551 5550 5550 5550 5551 5552 5553 5554 5557 5557 5558 5561 5563 5565 5567 5568 5569 5572 5575 5579 5584
5587 5586 5586 5585 5584 5584 5582 5579 5577 5574 5575 5572 5569 5566 5562 5558 5557 5557 5549 5547 5545 5543 5540 5538 5537 5535 5536 5536 5536 5535 5537 5539 5541 5544 5545 5547 5547 5547 5547 5549 5553 5558 5561 5567
5584 5583 5582 5580 5580 5580 5578 5575 5572 5569 5568 5565 5560 5557 5554 5550 5543 5549 5541 5537 5534 5530 5527 5525 5523 5521 5521 5524 5522 5521 5522 5522 5524 5526 5528 5527 5527 5527 5530 5533 5536 5539 5541 5547
5580 5578 5577 5575 5575 5575 5573 5571 5568 5565 5564 5557 5551 5546 5541 5535 5531 5525 5526 5524 5518 5515 5513 5511 5507 5506 5507 5507 5507 5506 5507 5508 5509 5509 5509 5510 5510 5510 5511 5513 5515 5518 5521 5526
5575 5574 5574 5572 5571 5571 5569 5567 5564 5560 5555 5546 5541 5535 5528 5523 5516 5510 5508 5506 5503 5500 5499 5496 5492 5494 5493 5492 5491 5492 5492 5492 5491 5490 5489 5489 5490 5489 5489 5489 5492 5494 5497 5501
5569 5569 5569 5570 5568 5565 5563 5560 5556 5550 5543 5535 5526 5519 5514 5509 5503 5498 5496 5493 5490 5488 5486 5484 5484 5484 5484 5481 5478 5479 5478 5475 5474 5474 5473 5473 5471 5469 5468 5466 5468 5471 5475 5480
5564 5565 5565 5565 5565 5562 5559 5553 5547 5540 5529 5521 5514 5507 5500 5495 5490 5487 5484 5480 5479 5478 5476 5475 5476 5476 5475 5471 5470 5468 5467 5465 5464 5461 5458 5455 5450 5448 5446 5445 5445 5447 5452 5459
5560 5561 5562 5562 5561 5559 5552 5546 5539 5534 5524 5515 5507 5499 5492 5486 5481 5476 5472 5469 5469 5469 5469 5469 5470 5469 5467 5465 5463 5460 5458 5456 5453 5447 5443 5437 5434 5430 5427 5426 5425 5427 5434 5437
5557 5558 5560 5560 5558 5556 5551 5545 5535 5525 5516 5508 5501 5493 5484 5475 5468 5465 5461 5461 5462 5463 5464 5466 5465 5463 5461 5459 5456 5453 5448 5445 5441 5437 5432 5423 5417 5411 5405 5402 5404 5408 5419 5424